Time,TemperatureF,DewpointF,PressureIn,WindDirection,WindDirectionDegrees,WindSpeedMPH,WindSpeedGustMPH,Humidity,HourlyPrecipIn,Conditions,Clouds,dailyrainin,SoftwareType,DateUTC
2013-01-22 00:02:00,36.0,11.0,-100.00,SE,140,40.0,55.0,35,0.00,,,-99.99,,2013-01-22 07:02:00,
2013-01-22 00:12:00,35.0,11.0,-100.00,SSE,160,35.0,47.0,35,0.00,,,-99.99,,2013-01-22 07:12:00,
2013-01-22 00:22:00,35.0,11.0,-100.00,SSE,165,38.0,49.0,35,0.00,,,-99.99,,2013-01-22 07:22:00,
2013-01-22 00:32:00,35.0,11.0,-100.00,WSW,250,37.0,49.0,35,0.00,,,-99.99,,2013-01-22 07:32:00,
2013-01-22 00:42:00,35.0,10.0,-100.00,WSW,255,30.0,42.0,36,0.00,,,-99.99,,2013-01-22 07:42:00,
2013-01-22 00:52:00,35.0,11.0,-100.00,South,170,33.0,38.0,35,0.00,,,-99.99,,2013-01-22 07:52:00,
2013-01-22 01:02:00,35.0,10.0,-100.00,South,180,36.0,42.0,36,0.00,,,-99.99,,2013-01-22 08:02:00,
2013-01-22 01:12:00,34.0,10.0,-100.00,SSW,205,32.0,42.0,36,0.00,,,-99.99,,2013-01-22 08:12:00,
2013-01-22 01:22:00,34.0,11.0,-100.00,SSE,160,35.0,45.0,37,0.00,,,-99.99,,2013-01-22 08:22:00,
2013-01-22 01:32:00,34.0,11.0,-100.00,South,175,33.0,45.0,37,0.00,,,-99.99,,2013-01-22 08:32:00,
2013-01-22 01:42:00,35.0,11.0,-100.00,South,190,38.0,48.0,35,0.00,,,-99.99,,2013-01-22 08:42:00,
2013-01-22 01:52:00,35.0,10.0,-100.00,SSW,195,35.0,48.0,35,0.00,,,-99.99,,2013-01-22 08:52:00,
2013-01-22 02:02:00,34.0,10.0,-100.00,SSW,200,38.0,47.0,35,0.00,,,-99.99,,2013-01-22 09:02:00,
2013-01-22 02:12:00,34.0,10.0,-100.00,SSE,165,37.0,47.0,36,0.00,,,-99.99,,2013-01-22 09:12:00,
2013-01-22 02:22:00,34.0,10.0,-100.00,SSW,205,35.0,52.0,36,0.00,,,-99.99,,2013-01-22 09:22:00,
2013-01-22 02:32:00,34.0,11.0,-100.00,SSE,155,40.0,54.0,37,0.00,,,-99.99,,2013-01-22 09:32:00,
2013-01-22 02:52:00,34.0,10.0,-100.00,SSE,160,43.0,52.0,37,0.00,,,-99.99,,2013-01-22 09:52:00,
2013-01-22 03:02:00,34.0,11.0,-100.00,South,185,42.0,54.0,37,0.00,,,-99.99,,2013-01-22 10:02:00,
2013-01-22 03:12:00,34.0,10.0,-100.00,SE,140,39.0,54.0,37,0.00,,,-99.99,,2013-01-22 10:12:00,
2013-01-22 03:22:00,33.0,10.0,-100.00,SSE,155,41.0,50.0,37,0.00,,,-99.99,,2013-01-22 10:22:00,
2013-01-22 03:32:00,33.0,10.0,-100.00,South,180,45.0,54.0,37,0.00,,,-99.99,,2013-01-22 10:32:00,
2013-01-22 03:42:00,33.0,10.0,-100.00,SSE,165,45.0,62.0,37,0.00,,,-99.99,,2013-01-22 10:42:00,
2013-01-22 03:52:00,33.0,10.0,-100.00,SSE,155,47.0,56.0,37,0.00,,,-99.99,,2013-01-22 10:52:00,
2013-01-22 04:02:00,34.0,11.0,-100.00,South,185,46.0,61.0,37,0.00,,,-99.99,,2013-01-22 11:02:00,
2013-01-22 04:12:00,34.0,11.0,-100.00,SSE,160,44.0,57.0,37,0.00,,,-99.99,,2013-01-22 11:12:00,
2013-01-22 04:22:00,34.0,10.0,-100.00,SSE,150,37.0,56.0,36,0.00,,,-99.99,,2013-01-22 11:22:00,
2013-01-22 04:33:00,34.0,10.0,-100.00,SSW,205,39.0,49.0,36,0.00,,,-99.99,,2013-01-22 11:33:00,
2013-01-22 04:42:00,33.0,10.0,-100.00,South,190,40.0,49.0,36,0.00,,,-99.99,,2013-01-22 11:42:00,
2013-01-22 04:53:00,33.0,9.0,-100.00,SW,220,37.0,48.0,36,0.00,,,-99.99,,2013-01-22 11:53:00,
2013-01-22 05:03:00,33.0,10.0,-100.00,SSW,210,42.0,50.0,37,0.00,,,-99.99,,2013-01-22 12:03:00,
2013-01-22 05:12:00,33.0,10.0,-100.00,SE,140,38.0,54.0,37,0.00,,,-99.99,,2013-01-22 12:12:00,
2013-01-22 05:23:00,33.0,10.0,-100.00,SSW,195,43.0,54.0,36,0.00,,,-99.99,,2013-01-22 12:23:00,
2013-01-22 05:33:00,34.0,10.0,-100.00,SSW,195,44.0,54.0,36,0.00,,,-99.99,,2013-01-22 12:33:00,
2013-01-22 05:43:00,33.0,10.0,-100.00,SSW,210,40.0,56.0,36,0.00,,,-99.99,,2013-01-22 12:43:00,
2013-01-22 05:52:00,33.0,9.0,-100.00,SSE,155,40.0,54.0,36,0.00,,,-99.99,,2013-01-22 12:52:00,
2013-01-22 06:03:00,33.0,9.0,-100.00,South,185,37.0,49.0,36,0.00,,,-99.99,,2013-01-22 13:03:00,
2013-01-22 06:13:00,34.0,10.0,-100.00,South,180,40.0,49.0,36,0.00,,,-99.99,,2013-01-22 13:13:00,
2013-01-22 06:23:00,33.0,9.0,-100.00,South,175,35.0,47.0,36,0.00,,,-99.99,,2013-01-22 13:23:00,
2013-01-22 06:33:00,33.0,9.0,-100.00,South,180,38.0,47.0,36,0.00,,,-99.99,,2013-01-22 13:33:00,
2013-01-22 06:43:00,33.0,9.0,-100.00,SW,235,34.0,49.0,36,0.00,,,-99.99,,2013-01-22 13:43:00,
2013-01-22 06:53:00,33.0,9.0,-100.00,SSW,200,37.0,45.0,36,0.00,,,-99.99,,2013-01-22 13:53:00,
2013-01-22 07:03:00,33.0,9.0,-100.00,SSW,210,35.0,45.0,36,0.00,,,-99.99,,2013-01-22 14:03:00,
2013-01-22 07:12:00,33.0,9.0,-100.00,SSE,150,35.0,44.0,36,0.00,,,-99.99,,2013-01-22 14:12:00,
2013-01-22 07:23:00,33.0,9.0,-100.00,SSE,165,34.0,44.0,36,0.00,,,-99.99,,2013-01-22 14:23:00,
2013-01-22 07:33:00,32.0,9.0,-100.00,SSE,165,32.0,43.0,36,0.00,,,-99.99,,2013-01-22 14:33:00,
2013-01-22 07:43:00,33.0,9.0,-100.00,SW,220,34.0,45.0,36,0.00,,,-99.99,,2013-01-22 14:43:00,
2013-01-22 07:53:00,33.0,9.0,-100.00,South,190,34.0,46.0,36,0.00,,,-99.99,,2013-01-22 14:53:00,
2013-01-22 08:03:00,33.0,9.0,-100.00,SW,215,28.0,42.0,36,0.00,,,-99.99,,2013-01-22 15:03:00,
2013-01-22 08:12:00,33.0,9.0,-100.00,SSW,195,34.0,42.0,36,0.00,,,-99.99,,2013-01-22 15:12:00,
2013-01-22 08:23:00,34.0,9.0,-100.00,SW,215,36.0,47.0,35,0.00,,,-99.99,,2013-01-22 15:23:00,
2013-01-22 08:34:00,34.0,10.0,-100.00,SW,225,37.0,48.0,35,0.00,,,-99.99,,2013-01-22 15:34:00,
2013-01-22 08:43:00,34.0,10.0,-100.00,SW,225,37.0,48.0,35,0.00,,,-99.99,,2013-01-22 15:43:00,
2013-01-22 08:52:00,35.0,10.0,-100.00,SSE,160,39.0,52.0,34,0.00,,,-99.99,,2013-01-22 15:52:00,
2013-01-22 09:03:00,36.0,10.0,-100.00,South,170,40.0,56.0,33,0.00,,,-99.99,,2013-01-22 16:03:00,
2013-01-22 09:13:00,36.0,10.0,-100.00,SSW,195,41.0,52.0,33,0.00,,,-99.99,,2013-01-22 16:13:00,
2013-01-22 09:23:00,37.0,10.0,-100.00,SW,235,39.0,49.0,32,0.00,,,-99.99,,2013-01-22 16:23:00,
2013-01-22 09:33:00,37.0,10.0,-100.00,South,190,39.0,51.0,32,0.00,,,-99.99,,2013-01-22 16:33:00,
2013-01-22 09:43:00,37.0,10.0,-100.00,South,175,36.0,55.0,32,0.00,,,-99.99,,2013-01-22 16:43:00,
2013-01-22 09:53:00,37.0,10.0,-100.00,SW,215,37.0,55.0,31,0.00,,,-99.99,,2013-01-22 16:53:00,
2013-01-22 10:03:00,38.0,10.0,-100.00,SSW,210,41.0,51.0,31,0.00,,,-99.99,,2013-01-22 17:03:00,
2013-01-22 10:12:00,38.0,10.0,-100.00,SSW,210,40.0,49.0,31,0.00,,,-99.99,,2013-01-22 17:12:00,
2013-01-22 10:23:00,38.0,10.0,-100.00,SSW,200,37.0,50.0,30,0.00,,,-99.99,,2013-01-22 17:23:00,
2013-01-22 10:34:00,38.0,10.0,-100.00,SW,230,40.0,49.0,30,0.00,,,-99.99,,2013-01-22 17:34:00,
2013-01-22 10:43:00,39.0,10.0,-100.00,SW,225,42.0,54.0,29,0.00,,,-99.99,,2013-01-22 17:43:00,
2013-01-22 10:53:00,39.0,10.0,-100.00,South,175,39.0,50.0,29,0.00,,,-99.99,,2013-01-22 17:53:00,
2013-01-22 11:03:00,39.0,10.0,-100.00,SSW,200,38.0,53.0,29,0.00,,,-99.99,,2013-01-22 18:03:00,
2013-01-22 11:12:00,39.0,10.0,-100.00,SSE,165,39.0,49.0,29,0.00,,,-99.99,,2013-01-22 18:12:00,
2013-01-22 11:23:00,39.0,10.0,-100.00,SW,230,41.0,52.0,29,0.00,,,-99.99,,2013-01-22 18:23:00,
2013-01-22 11:33:00,40.0,10.0,-100.00,SSW,200,39.0,48.0,29,0.00,,,-99.99,,2013-01-22 18:33:00,
2013-01-22 11:43:00,40.0,10.0,-100.00,South,185,37.0,50.0,29,0.00,,,-99.99,,2013-01-22 18:43:00,
2013-01-22 11:53:00,40.0,11.0,-100.00,SSW,200,38.0,52.0,29,0.00,,,-99.99,,2013-01-22 18:53:00,
2013-01-22 12:03:00,40.0,10.0,-100.00,SW,225,44.0,57.0,29,0.00,,,-99.99,,2013-01-22 19:03:00,
2013-01-22 12:13:00,40.0,10.0,-100.00,SW,220,39.0,57.0,29,0.00,,,-99.99,,2013-01-22 19:13:00,
2013-01-22 12:23:00,40.0,10.0,-100.00,SW,230,37.0,52.0,28,0.00,,,-99.99,,2013-01-22 19:23:00,
2013-01-22 12:33:00,40.0,10.0,-100.00,SSW,205,42.0,51.0,28,0.00,,,-99.99,,2013-01-22 19:33:00,
2013-01-22 12:43:00,41.0,11.0,-100.00,SW,215,34.0,50.0,28,0.00,,,-99.99,,2013-01-22 19:43:00,
2013-01-22 12:53:00,41.0,10.0,-100.00,SW,235,40.0,50.0,28,0.00,,,-99.99,,2013-01-22 19:53:00,
2013-01-22 13:03:00,41.0,10.0,-100.00,SSW,195,40.0,52.0,28,0.00,,,-99.99,,2013-01-22 20:03:00,
2013-01-22 13:12:00,41.0,11.0,-100.00,SW,225,40.0,53.0,28,0.00,,,-99.99,,2013-01-22 20:12:00,
2013-01-22 13:23:00,42.0,11.0,-100.00,SW,230,37.0,51.0,27,0.00,,,-99.99,,2013-01-22 20:23:00,
2013-01-22 13:33:00,42.0,11.0,-100.00,SW,220,35.0,52.0,28,0.00,,,-99.99,,2013-01-22 20:33:00,
2013-01-22 13:42:00,42.0,11.0,-100.00,South,185,38.0,50.0,27,0.00,,,-99.99,,2013-01-22 20:42:00,
2013-01-22 13:53:00,42.0,11.0,-100.00,SW,220,36.0,49.0,27,0.00,,,-99.99,,2013-01-22 20:53:00,
2013-01-22 14:03:00,42.0,11.0,-100.00,SW,230,34.0,47.0,26,0.00,,,-99.99,,2013-01-22 21:03:00,
2013-01-22 14:13:00,42.0,11.0,-100.00,SW,230,32.0,46.0,26,0.00,,,-99.99,,2013-01-22 21:13:00,
2013-01-22 14:22:00,43.0,10.0,-100.00,SW,235,34.0,45.0,26,0.00,,,-99.99,,2013-01-22 21:22:00,
2013-01-22 14:33:00,42.0,10.0,-100.00,SW,225,32.0,44.0,26,0.00,,,-99.99,,2013-01-22 21:33:00,
2013-01-22 14:43:00,43.0,10.0,-100.00,SSW,205,30.0,37.0,25,0.00,,,-99.99,,2013-01-22 21:43:00,
2013-01-22 14:52:00,42.0,10.0,-100.00,SSW,210,37.0,46.0,25,0.00,,,-99.99,,2013-01-22 21:52:00,
2013-01-22 15:03:00,42.0,9.0,-100.00,SW,230,37.0,47.0,25,0.00,,,-99.99,,2013-01-22 22:03:00,
2013-01-22 15:12:00,42.0,9.0,-100.00,SW,230,35.0,47.0,25,0.00,,,-99.99,,2013-01-22 22:12:00,
2013-01-22 15:22:00,42.0,9.0,-100.00,SW,230,37.0,49.0,25,0.00,,,-99.99,,2013-01-22 22:22:00,
2013-01-22 15:32:00,42.0,9.0,-100.00,SSW,210,36.0,49.0,25,0.00,,,-99.99,,2013-01-22 22:32:00,
2013-01-22 15:43:00,42.0,9.0,-100.00,SW,225,41.0,51.0,25,0.00,,,-99.99,,2013-01-22 22:43:00,
2013-01-22 15:53:00,42.0,8.0,-100.00,SSW,210,33.0,44.0,25,0.00,,,-99.99,,2013-01-22 22:53:00,
2013-01-22 16:03:00,42.0,8.0,-100.00,West,260,35.0,42.0,25,0.00,,,-99.99,,2013-01-22 23:03:00,
2013-01-22 16:12:00,41.0,8.0,-100.00,SSW,205,35.0,45.0,24,0.00,,,-99.99,,2013-01-22 23:12:00,
2013-01-22 16:23:00,40.0,7.0,-100.00,SW,220,27.0,35.0,25,0.00,,,-99.99,,2013-01-22 23:23:00,
2013-01-22 16:33:00,40.0,7.0,-100.00,West,265,30.0,38.0,25,0.00,,,-99.99,,2013-01-22 23:33:00,
2013-01-22 16:43:00,39.0,7.0,-100.00,West,265,23.0,37.0,25,0.00,,,-99.99,,2013-01-22 23:43:00,
2013-01-22 16:52:00,39.0,7.0,-100.00,SSW,205,27.0,32.0,25,0.00,,,-99.99,,2013-01-22 23:52:00,
2013-01-22 17:03:00,39.0,6.0,-100.00,West,260,29.0,35.0,24,0.00,,,-99.99,,2013-01-23 00:03:00,
2013-01-22 17:12:00,39.0,6.0,-100.00,West,265,23.0,35.0,24,0.00,,,-99.99,,2013-01-23 00:12:00,
2013-01-22 17:22:00,39.0,6.0,-100.00,West,270,23.0,32.0,24,0.00,,,-99.99,,2013-01-23 00:22:00,
2013-01-22 17:33:00,39.0,6.0,-100.00,West,265,24.0,32.0,25,0.00,,,-99.99,,2013-01-23 00:33:00,
2013-01-22 17:42:00,39.0,6.0,-100.00,SSW,210,25.0,35.0,24,0.00,,,-99.99,,2013-01-23 00:42:00,
2013-01-22 17:52:00,38.0,6.0,-100.00,West,260,24.0,29.0,25,0.00,,,-99.99,,2013-01-23 00:52:00,
2013-01-22 18:03:00,38.0,6.0,-100.00,SSW,210,24.0,30.0,25,0.00,,,-99.99,,2013-01-23 01:03:00,
2013-01-22 18:13:00,38.0,6.0,-100.00,West,260,23.0,30.0,25,0.00,,,-99.99,,2013-01-23 01:13:00,
2013-01-22 18:22:00,37.0,5.0,-100.00,SW,225,22.0,29.0,25,0.00,,,-99.99,,2013-01-23 01:22:00,
2013-01-22 18:33:00,38.0,6.0,-100.00,SW,230,30.0,38.0,25,0.00,,,-99.99,,2013-01-23 01:33:00,
2013-01-22 18:52:00,39.0,6.0,-100.00,SW,230,30.0,39.0,24,0.00,,,-99.99,,2013-01-23 01:52:00,
2013-01-22 19:03:00,39.0,6.0,-100.00,SW,235,32.0,40.0,24,0.00,,,-99.99,,2013-01-23 02:03:00,
2013-01-22 19:12:00,38.0,5.0,-100.00,SSW,205,29.0,39.0,24,0.00,,,-99.99,,2013-01-23 02:12:00,
2013-01-22 19:23:00,38.0,5.0,-100.00,SW,215,30.0,37.0,24,0.00,,,-99.99,,2013-01-23 02:23:00,
2013-01-22 19:33:00,38.0,5.0,-100.00,SW,230,26.0,35.0,24,0.00,,,-99.99,,2013-01-23 02:33:00,
2013-01-22 19:42:00,38.0,5.0,-100.00,SW,235,28.0,34.0,24,0.00,,,-99.99,,2013-01-23 02:42:00,
2013-01-22 19:53:00,38.0,5.0,-100.00,SW,230,29.0,36.0,24,0.00,,,-99.99,,2013-01-23 02:53:00,
2013-01-22 20:03:00,38.0,5.0,-100.00,SW,230,28.0,37.0,24,0.00,,,-99.99,,2013-01-23 03:03:00,
2013-01-22 20:12:00,38.0,5.0,-100.00,South,175,31.0,40.0,24,0.00,,,-99.99,,2013-01-23 03:12:00,
2013-01-22 20:23:00,38.0,4.0,-100.00,SW,230,27.0,37.0,23,0.00,,,-99.99,,2013-01-23 03:23:00,
2013-01-22 20:33:00,38.0,4.0,-100.00,SW,230,29.0,42.0,23,0.00,,,-99.99,,2013-01-23 03:33:00,
2013-01-22 20:42:00,38.0,4.0,-100.00,SW,230,30.0,35.0,23,0.00,,,-99.99,,2013-01-23 03:42:00,
2013-01-22 20:53:00,38.0,4.0,-100.00,SW,225,30.0,35.0,23,0.00,,,-99.99,,2013-01-23 03:53:00,
2013-01-22 21:03:00,39.0,5.0,-100.00,WSW,240,29.0,37.0,23,0.00,,,-99.99,,2013-01-23 04:03:00,
2013-01-22 21:12:00,39.0,4.0,-100.00,SW,230,29.0,37.0,23,0.00,,,-99.99,,2013-01-23 04:12:00,
2013-01-22 21:22:00,39.0,4.0,-100.00,SW,230,30.0,37.0,23,0.00,,,-99.99,,2013-01-23 04:22:00,
2013-01-22 21:32:00,39.0,4.0,-100.00,SW,235,30.0,37.0,23,0.00,,,-99.99,,2013-01-23 04:32:00,
2013-01-22 21:43:00,39.0,4.0,-100.00,South,190,30.0,39.0,23,0.00,,,-99.99,,2013-01-23 04:43:00,
2013-01-22 21:52:00,40.0,5.0,-100.00,SW,215,32.0,40.0,22,0.00,,,-99.99,,2013-01-23 04:52:00,
2013-01-22 22:03:00,40.0,5.0,-100.00,SW,225,31.0,40.0,22,0.00,,,-99.99,,2013-01-23 05:03:00,
2013-01-22 22:12:00,40.0,4.0,-100.00,SW,230,32.0,40.0,21,0.00,,,-99.99,,2013-01-23 05:12:00,
2013-01-22 22:22:00,40.0,4.0,-100.00,SW,230,31.0,42.0,21,0.00,,,-99.99,,2013-01-23 05:22:00,
2013-01-22 22:33:00,40.0,4.0,-100.00,SW,230,32.0,42.0,21,0.00,,,-99.99,,2013-01-23 05:33:00,
2013-01-22 22:43:00,40.0,4.0,-100.00,SW,225,32.0,41.0,21,0.00,,,-99.99,,2013-01-23 05:43:00,
2013-01-22 22:52:00,40.0,4.0,-100.00,SW,230,33.0,45.0,21,0.00,,,-99.99,,2013-01-23 05:52:00,
2013-01-22 23:02:00,40.0,3.0,-100.00,SW,225,30.0,42.0,21,0.00,,,-99.99,,2013-01-23 06:02:00,
2013-01-22 23:12:00,40.0,3.0,-100.00,SW,225,31.0,42.0,20,0.00,,,-99.99,,2013-01-23 06:12:00,
2013-01-22 23:22:00,40.0,3.0,-100.00,SW,230,30.0,42.0,20,0.00,,,-99.99,,2013-01-23 06:22:00,
2013-01-22 23:32:00,40.0,3.0,-100.00,SW,220,32.0,39.0,20,0.00,,,-99.99,,2013-01-23 06:32:00,
2013-01-22 23:42:00,40.0,3.0,-100.00,SW,220,29.0,38.0,20,0.00,,,-99.99,,2013-01-23 06:42:00,
2013-01-22 23:52:00,40.0,3.0,-100.00,SW,230,32.0,41.0,20,0.00,,,-99.99,,2013-01-23 06:52:00,